Location: Praha
(50.0830°N, 14.4670°E)
Time: 17:47:10
(UTC+02:00)

ISS - Pass Details

Date: 24 August 2022
Orbit: 412 x 420 km, 51.6° (Epoch: 17 August)

Event Time Altitude Azimuth Distance (km) Brightness Sun altitude
Exits shadow 05:28:56 - 204° (SSW) 2,158 -0.6 -6.2°
Reaches altitude 10° 05:30:55 10° 188° (S) 1,487 -1.3 -5.9°
Maximum altitude 05:33:20 19° 141° (SE) 1,064 -1.5 -5.5°
Drops below altitude 10° 05:35:47 10° 94° (E) 1,491 0.2 -5.2°
Sets 05:38:16 0° 76° (ENE) 2,356 2.4 -4.8°
